Location: Svitavy
(49.7500°N, 16.4667°E)
Time: 10:01:04
(UTC+02:00)

ISS - Visible Passes

Search period start: 19 July 2018 00:00
Search period end: 29 July 2018 00:00
Orbit: 402 x 408 km, 51.6° (Epoch: 19 July)

Date Brightness Start Highest point End Pass type
(mag) Time Alt. Az. Time Alt. Az. Time Alt. Az.
19 Jul -3.3 01:32:08 10° W 01:35:24 60° N 01:38:40 10° E visible
19 Jul -3.9 03:08:44 10° WNW 03:12:03 89° NNE 03:15:21 10° ESE visible
19 Jul -3.6 23:03:37 10° SW 23:06:47 46° SSE 23:09:57 10° ENE visible
20 Jul -3.5 00:39:58 10° W 00:43:14 66° N 00:46:32 10° ENE visible
20 Jul -3.6 02:16:37 10° WNW 02:19:55 71° NNE 02:23:13 10° E visible
20 Jul -3.3 03:53:13 10° W 03:56:18 38° SSW 03:59:23 10° SE visible
20 Jul -3.0 22:11:51 10° SSW 22:14:46 30° SSE 22:17:43 10° E visible
20 Jul -3.8 23:47:48 10° WSW 23:51:05 79° NNW 23:54:23 10° ENE visible
21 Jul -3.4 01:24:29 10° WNW 01:27:45 62° N 01:31:01 10° E visible
21 Jul -3.8 03:01:02 10° WNW 03:04:16 57° SSW 03:07:31 10° SE visible
21 Jul -4.0 22:55:40 10° WSW 22:58:57 79° SSE 23:02:14 10° ENE visible
22 Jul -3.3 00:32:18 10° W 00:35:34 59° N 00:38:49 10° E visible
22 Jul -4.0 02:08:53 10° WNW 02:12:11 82° SSW 02:15:29 10° ESE visible
22 Jul -2.5 03:45:47 10° W 03:48:20 21° SW 03:50:52 10° SSE visible
22 Jul -3.8 22:03:38 10° SW 22:06:51 54° SSE 22:10:04 10° ENE visible
22 Jul -3.4 23:40:05 10° W 23:43:21 63° N 23:46:38 10° ENE visible
23 Jul -3.8 01:16:44 10° WNW 01:20:02 77° NNE 01:20:47 49° E visible
23 Jul -3.6 22:47:53 10° W 22:51:09 73° N 22:54:27 10° ENE visible
24 Jul -3.5 00:24:33 10° WNW 00:27:49 65° N 00:29:04 34° ENE visible
24 Jul -1.4 02:01:06 10° WNW 02:01:39 14° W 02:01:39 14° W visible
24 Jul -3.9 21:55:41 10° WSW 21:58:58 88° SSE 22:02:15 10° ENE visible
24 Jul -3.3 23:32:20 10° W 23:35:36 60° N 23:38:03 16° E visible
25 Jul -2.4 01:08:54 10° WNW 01:10:40 29° W 01:10:40 29° W visible
25 Jul -3.3 22:40:06 10° W 22:43:21 61° N 22:46:37 10° ENE visible
26 Jul -3.8 00:16:43 10° WNW 00:19:52 79° NW 00:19:52 79° NW visible
26 Jul -3.5 21:47:51 10° W 21:51:06 68° N 21:54:23 10° ENE visible
26 Jul -3.6 23:24:30 10° WNW 23:27:47 68° N 23:29:10 31° E visible
27 Jul -1.4 01:01:04 10° WNW 01:01:46 15° W 01:01:46 15° W visible
27 Jul -3.3 22:32:16 10° WNW 22:35:31 61° N 22:38:30 12° E visible
28 Jul -2.9 00:08:49 10° WNW 00:11:08 40° W 00:11:08 40° W visible
28 Jul -3.3 21:40:00 10° W 21:43:15 60° N 21:46:30 10° E visible
28 Jul -3.9 23:16:35 10° WNW 23:19:52 88° SSW 23:20:30 55° ESE visible
